Location: Home
(42.5358°N, 72.7383°W)
Time: 09:30:51
(UTC-05:00)

Vanguard 2 Rocket - Pass Details

Date: 04 December 2021
Orbit: 553 x 3325 km, 32.9° (Epoch: 22 January)

Event Time Altitude Azimuth Distance (km) Brightness Sun altitude
Rises 00:24:36 0° 270° (W) 5,423 - -67.8°
Reaches altitude 10° 00:28:55 10° 256° (WSW) 4,848 - -67.4°
Maximum altitude 00:38:59 22° 213° (SSW) 4,660 - -66.4°
Drops below altitude 10° 00:51:44 10° 171° (S) 6,196 - -65.0°
Exits shadow 00:57:20 - 160° (SSE) 7,102 11.3 -64.3°
Sets 00:58:33 0° 159° (SSE) 7,302 11.4 -64.1°
